| time (UTC) | temp C | wind direction | speed KPH | gust KPH | rain 1hr cm | rain 24hr cm | rain mn cm | humidity % | barometer mb |
| 20260508184558 | 22 | 136 | 3.2 | 12.9 | 0.00 | 0.00 | 0.00 | 25 | 1016.6 |
| 20260508183043 | 22 | 144 | 3.2 | 12.9 | 0.00 | 0.00 | 0.00 | 25 | 1016.7 |
| 20260508181555 | 22 | 84 | 1.6 | 8.0 | 0.00 | 0.00 | 0.00 | 25 | 1016.9 |
| 20260508180041 | 22 | 88 | 3.2 | 9.7 | 0.00 | 0.00 | 0.00 | 26 | 1016.9 |
| 20260508174544 | 23 | 197 | 0.0 | 6.4 | 0.00 | 0.00 | 0.00 | 25 | 1017.0 |
| 20260508173038 | 22 | 93 | 1.6 | 14.5 | 0.00 | 0.00 | 0.00 | 28 | 1017.3 |
| 20260508171537 | 21 | 242 | 4.8 | 8.0 | 0.00 | 0.00 | 0.00 | 28 | 1017.4 |
| 20260508170039 | 21 | 130 | 4.8 | 14.5 | 0.00 | 0.00 | 0.00 | 27 | 1017.7 |
| 20260508164533 | 21 | 222 | 4.8 | 11.3 | 0.00 | 0.00 | 0.00 | 27 | 1018.0 |
| 20260508163032 | 21 | 355 | 1.6 | 6.4 | 0.00 | 0.00 | 0.00 | 27 | 1017.9 |
| 20260508161532 | 20 | 315 | 0.0 | 8.0 | 0.00 | 0.00 | 0.00 | 30 | 1018.2 |
| 20260508160030 | 20 | 167 | 0.0 | 8.0 | 0.00 | 0.00 | 0.00 | 28 | 1018.5 |
| 20260508154524 | 20 | 182 | 1.6 | 8.0 | 0.00 | 0.00 | 0.00 | 30 | 1018.7 |
| 20260508153024 | 19 | 165 | 1.6 | 4.8 | 0.00 | 0.00 | 0.00 | 30 | 1018.8 |
| 20260508151524 | 18 | 299 | 0.0 | 6.4 | 0.00 | 0.00 | 0.00 | 33 | 1018.9 |
| 20260508150023 | 18 | 355 | 1.6 | 8.0 | 0.00 | 0.00 | 0.00 | 33 | 1018.8 |
| 20260508144541 | 18 | 174 | 1.6 | 4.8 | 0.00 | 0.00 | 0.00 | 35 | 1018.9 |
| 20260508143015 | 17 | 66 | 0.0 | 6.4 | 0.00 | 0.00 | 0.00 | 38 | 1019.0 |
| 20260508141515 | 17 | 107 | 1.6 | 8.0 | 0.00 | 0.00 | 0.00 | 37 | 1019.2 |
| 20260508140013 | 16 | 309 | 3.2 | 8.0 | 0.00 | 0.00 | 0.00 | 36 | 1019.2 |
| 20260508134510 | 16 | 13 | 3.2 | 9.7 | 0.00 | 0.00 | 0.00 | 36 | 1019.0 |
| 20260508133014 | 16 | 347 | 3.2 | 6.4 | 0.00 | 0.00 | 0.00 | 42 | 1019.1 |
| 20260508131509 | 16 | 306 | 1.6 | 6.4 | 0.00 | 0.00 | 0.00 | 44 | 1019.0 |
| 20260508130006 | 15 | 53 | 0.0 | 4.8 | 0.00 | 0.00 | 0.00 | 45 | 1018.9 |
| 20260508124504 | 15 | 18 | 1.6 | 4.8 | 0.00 | 0.00 | 0.00 | 49 | 1018.8 |
| 20260508123111 | 13 | 360 | 0.0 | 8.0 | 0.00 | 0.00 | 0.00 | 53 | 1018.5 |
| 20260508121602 | 12 | 360 | 3.2 | 8.0 | 0.00 | 0.00 | 0.00 | 53 | 1018.5 |
| 20260508120055 | 11 | 360 | 0.0 | 4.8 | 0.00 | 0.00 | 0.00 | 54 | 1018.2 |
| 20260508114552 | 10 | 293 | 0.0 | 4.8 | 0.00 | 0.00 | 0.00 | 54 | 1018.0 |
| 20260508113105 | 9 | 360 | 0.0 | 0.0 | 0.00 | 0.00 | 0.00 | 57 | 1017.6 |
| 20260508111549 | 8 | 360 | 0.0 | 1.6 | 0.00 | 0.00 | 0.00 | 59 | 1017.5 |
| 20260508110053 | 7 | 360 | 0.0 | 0.0 | 0.00 | 0.00 | 0.00 | 60 | 1017.2 |
| 20260508104544 | 7 | 360 | 0.0 | 0.0 | 0.00 | 0.00 | 0.00 | 59 | 1017.0 |
| 20260508103052 | 7 | 360 | 0.0 | 0.0 | 0.00 | 0.00 | 0.00 | 59 | 1016.6 |
| 20260508101541 | 8 | 306 | 0.0 | 0.0 | 0.00 | 0.00 | 0.00 | 59 | 1016.3 |
| 20260508100037 | 8 | 360 | 0.0 | 0.0 | 0.00 | 0.00 | 0.00 | 59 | 1016.2 |
| 20260508094535 | 8 | 360 | 0.0 | 0.0 | 0.00 | 0.00 | 0.00 | 58 | 1016.1 |
| 20260508093036 | 8 | 360 | 0.0 | 1.6 | 0.00 | 0.00 | 0.00 | 58 | 1016.0 |
| 20260508091531 | 9 | 360 | 0.0 | 3.2 | 0.00 | 0.00 | 0.00 | 58 | 1015.7 |
| 20260508090031 | 9 | 360 | 0.0 | 1.6 | 0.00 | 0.00 | 0.00 | 58 | 1015.7 |
| 20260508084530 | 9 | 360 | 0.0 | 3.2 | 0.00 | 0.00 | 0.00 | 58 | 1015.7 |
| 20260508083037 | 9 | 360 | 0.0 | 0.0 | 0.00 | 0.00 | 0.00 | 59 | 1015.6 |
| 20260508081528 | 9 | 360 | 0.0 | 0.0 | 0.00 | 0.00 | 0.00 | 59 | 1015.4 |
| 20260508080026 | 9 | 360 | 0.0 | 0.0 | 0.00 | 0.00 | 0.00 | 58 | 1015.5 |
| 20260508074533 | 9 | 360 | 0.0 | 0.0 | 0.00 | 0.00 | 0.00 | 58 | 1015.2 |
| 20260508073026 | 9 | 360 | 0.0 | 0.0 | 0.00 | 0.00 | 0.00 | 59 | 1015.2 |
| 20260508071523 | 9 | 360 | 0.0 | 0.0 | 0.00 | 0.00 | 0.00 | 60 | 1015.1 |
| 20260508070023 | 10 | 360 | 0.0 | 0.0 | 0.00 | 0.00 | 0.00 | 60 | 1014.9 |
| 20260508064521 | 10 | 360 | 0.0 | 0.0 | 0.00 | 0.00 | 0.00 | 59 | 1014.9 |
| 20260508063019 | 10 | 309 | 0.0 | 0.0 | 0.00 | 0.00 | 0.00 | 60 | 1014.8 |
| 20260508061519 | 10 | 309 | 0.0 | 0.0 | 0.00 | 0.00 | 0.00 | 59 | 1014.6 |
| 20260508060017 | 10 | 309 | 0.0 | 0.0 | 0.00 | 0.00 | 0.00 | 59 | 1014.9 |
| 20260508054518 | 10 | 309 | 0.0 | 0.0 | 0.00 | 0.00 | 0.00 | 60 | 1015.0 |
| 20260508053031 | 10 | 309 | 0.0 | 0.0 | 0.00 | 0.00 | 0.00 | 61 | 1014.9 |
| 20260508051513 | 10 | 308 | 0.0 | 1.6 | 0.00 | 0.00 | 0.00 | 62 | 1014.8 |
| 20260508050012 | 11 | 360 | 0.0 | 0.0 | 0.00 | 0.00 | 0.00 | 62 | 1014.6 |
| 20260508044509 | 11 | 360 | 0.0 | 0.0 | 0.00 | 0.00 | 0.00 | 61 | 1014.4 |
| 20260508043006 | 11 | 360 | 0.0 | 0.0 | 0.00 | 0.00 | 0.00 | 60 | 1014.3 |
| 20260508041504 | 12 | 308 | 0.0 | 0.0 | 0.00 | 0.00 | 0.00 | 59 | 1014.3 |
| 20260508040001 | 12 | 309 | 0.0 | 3.2 | 0.00 | 0.00 | 0.00 | 57 | 1014.4 |
| 20260508034603 | 12 | 360 | 0.0 | 0.0 | 0.00 | 0.00 | 0.00 | 56 | 1014.3 |
| 20260508033056 | 13 | 360 | 0.0 | 0.0 | 0.00 | 0.00 | 0.00 | 55 | 1014.2 |
| 20260508031558 | 13 | 311 | 0.0 | 0.0 | 0.00 | 0.00 | 0.00 | 55 | 1014.3 |
| 20260508030054 | 13 | 360 | 0.0 | 3.2 | 0.00 | 0.00 | 0.00 | 53 | 1014.3 |
| 20260508024604 | 14 | 311 | 0.0 | 3.2 | 0.00 | 0.00 | 0.00 | 52 | 1014.1 |
| 20260508023051 | 15 | 313 | 0.0 | 3.2 | 0.00 | 0.00 | 0.00 | 52 | 1014.0 |
| 20260508021547 | 15 | 311 | 1.6 | 3.2 | 0.00 | 0.00 | 0.00 | 51 | 1013.9 |
| 20260508020049 | 15 | 313 | 0.0 | 4.8 | 0.00 | 0.00 | 0.00 | 51 | 1013.4 |
| 20260508014545 | 15 | 313 | 1.6 | 6.4 | 0.00 | 0.00 | 0.00 | 48 | 1013.2 |
| 20260508013042 | 16 | 311 | 3.2 | 9.7 | 0.00 | 0.00 | 0.00 | 49 | 1012.9 |
| 20260508011550 | 16 | 360 | 0.0 | 11.3 | 0.00 | 0.00 | 0.00 | 47 | 1012.7 |
| 20260508010039 | 16 | 316 | 0.0 | 6.4 | 0.00 | 0.00 | 0.00 | 43 | 1012.4 |
| 20260508004540 | 17 | 282 | 4.8 | 14.5 | 0.00 | 0.00 | 0.00 | 42 | 1012.0 |
| 20260508003039 | 17 | 273 | 4.8 | 20.9 | 0.00 | 0.00 | 0.00 | 44 | 1011.5 |
| 20260508001540 | 17 | 269 | 9.7 | 25.7 | 0.00 | 0.00 | 0.00 | 43 | 1011.1 |
| 20260508000036 | 18 | 254 | 6.4 | 22.5 | 0.00 | 0.00 | 0.00 | 44 | 1011.2 |
| 20260507234537 | 18 | 261 | 4.8 | 16.1 | 0.00 | 0.00 | 0.00 | 46 | 1011.0 |
| 20260507233052 | 17 | 333 | 3.2 | 17.7 | 0.00 | 0.00 | 0.00 | 52 | 1010.5 |
| 20260507231538 | 17 | 289 | 3.2 | 17.7 | 0.00 | 0.00 | 0.00 | 60 | 1010.6 |
| 20260507230032 | 17 | 360 | 1.6 | 16.1 | 0.00 | 0.00 | 0.00 | 61 | 1010.2 |
| 20260507224532 | 18 | 329 | 11.3 | 22.5 | 0.00 | 0.00 | 0.00 | 60 | 1009.6 |
| 20260507223032 | 18 | 18 | 3.2 | 16.1 | 0.00 | 0.00 | 0.00 | 60 | 1009.1 |
| 20260507221535 | 20 | 337 | 6.4 | 22.5 | 0.00 | 0.00 | 0.00 | 58 | 1008.7 |
| 20260507220031 | 23 | 336 | 9.7 | 22.5 | 0.00 | 0.00 | 0.00 | 50 | 1008.4 |
| 20260507214530 | 25 | 225 | 1.6 | 22.5 | 0.00 | 0.00 | 0.00 | 43 | 1008.1 |
| 20260507213036 | 24 | 182 | 1.6 | 8.0 | 0.00 | 0.00 | 0.00 | 49 | 1007.8 |
| 20260507211530 | 23 | 173 | 1.6 | 12.9 | 0.00 | 0.00 | 0.00 | 50 | 1007.7 |
| 20260507210030 | 24 | 207 | 3.2 | 17.7 | 0.00 | 0.00 | 0.00 | 47 | 1007.5 |
| 20260507204530 | 25 | 163 | 3.2 | 16.1 | 0.00 | 0.00 | 0.00 | 47 | 1007.3 |
| 20260507203033 | 26 | 142 | 3.2 | 19.3 | 0.00 | 0.00 | 0.00 | 45 | 1007.4 |
| 20260507201529 | 27 | 204 | 3.2 | 16.1 | 0.00 | 0.00 | 0.00 | 44 | 1007.5 |
| 20260507200026 | 27 | 171 | 3.2 | 14.5 | 0.00 | 0.00 | 0.00 | 45 | 1007.3 |
| 20260507194536 | 27 | 155 | 4.8 | 14.5 | 0.00 | 0.00 | 0.00 | 44 | 1007.6 |
| 20260507193028 | 25 | 171 | 1.6 | 8.0 | 0.00 | 0.00 | 0.00 | 47 | 1008.0 |
| 20260507191530 | 25 | 181 | 0.0 | 16.1 | 0.00 | 0.00 | 0.00 | 54 | 1008.2 |
| 20260507190022 | 26 | 185 | 3.2 | 14.5 | 0.00 | 0.00 | 0.00 | 46 | 1008.3 |